[[{"header":{"parameterUnit":"m.s-1","parameterCategory":1,"la1":30.2991,"la2":30.254,"lo1":-89.0895,"lo2":-89.0444,"dy":0.0017,"dx":0.0017,"nx":28,"ny":28,"refTime":"2023-08-06T09:00:00:Z","depth":0,"parameterNumber":2,"parameterNumberName":"U-component_of_WINDS"},"data":[0,0,0,0,0,0,0,0,0,0,0,0,0,0,0,0,0,0,0,0,0,0,0,0,0,0,0,0,0,0,0,0,0,0,0,0,0,0,0,0,0,0,0,0,0,0,0,0,0,0,0,0,0,0,0,0,0,0,3.3902,3.3902,0,3.3955,3.3955,3.3956,3.3918,3.3917,3.3915,3.3913,3.3973,3.3976,3.3979,0,0,0,0,0,0,0,0,0,0,0,0,0,3.3773,3.3775,3.3902,3.3902,3.3903,3.3955,3.3955,3.3956,3.3919,3.3916,3.3914,3.3912,3.3971,3.3975,3.3979,0,0,0,0,0,0,0,0,0,0,0,0,0,3.3828,3.3776,3.3901,3.389,3.389,3.3954,3.3955,3.3956,3.3919,3.3916,3.3914,3.3911,3.397,3.3975,3.398,3.4059,0,0,3.3994,3.3996,0,0,0,0,0,0,0,0,3.3825,3.3832,3.3891,3.3891,3.3891,3.3927,3.3931,3.3991,3.392,3.3908,3.3913,3.391,3.396,3.3965,3.3981,3.4062,3.4065,3.3994,3.3997,3.3999,3.4001,0,0,0,0,0,0,0,3.3821,3.383,3.3923,3.3892,3.3892,3.3884,3.3889,3.3943,3.3948,3.3909,3.3906,3.3913,3.3959,3.3976,3.3982,3.4066,3.3994,3.3998,3.4001,3.4003,3.4216,3.4219,0,0,0,0,0,0,3.3817,3.3827,3.3921,3.3924,3.3851,3.3889,3.3894,3.3918,3.3947,3.3949,3.3915,3.3911,3.397,3.3977,3.3984,3.4079,3.3999,3.4004,3.4006,3.4213,3.4217,3.422,0,0,0,0,0,0,3.3815,3.3826,3.3919,3.3875,3.3886,3.3893,3.3921,3.392,3.3937,3.3951,3.3953,3.3931,3.3968,3.3977,3.4041,3.4081,3.4006,3.401,3.421,3.4214,3.4218,3.4271,0,0,0,0,0,0,3.3811,3.3825,3.3855,3.3876,3.3889,3.3973,3.3923,3.3923,3.3945,3.394,3.3967,3.3969,3.3967,3.4034,3.4045,3.4086,3.4014,3.4206,3.4212,3.4217,3.4266,3.4277,3.4286,0,0,0,0,0,3.3807,3.3868,3.3856,3.3868,3.3925,3.3976,3.3983,3.3978,3.3949,3.3979,3.3988,3.3968,3.4075,3.4041,3.4053,3.4096,3.4204,3.421,3.4216,3.4261,3.4275,3.4286,0,0,0,0,0,0,3.3853,3.3871,3.3858,3.3928,3.395,3.3969,3.4007,3.3992,3.4024,3.4019,3.4012,3.4018,3.4085,3.4097,3.4059,3.4175,3.4135,3.4144,3.4165,3.4177,3.4187,3.4183,3.4018,0,0,0,0,0,3.3871,3.3909,3.3924,3.3984,3.3996,3.4,3.4022,3.4015,3.4039,3.4049,3.4063,3.4088,3.4127,3.4153,3.419,3.4268,3.4273,3.4304,3.4314,3.4322,3.433,3.4372,3.4386,3.4241,3.424,3.424,0,0,3.391,3.3924,3.3949,3.3994,3.4011,3.4052,3.4008,3.4053,3.4084,3.4056,3.4116,3.4128,3.4156,3.4227,3.4259,3.4239,3.4371,3.433,3.4336,3.434,3.438,3.4394,3.4406,3.4245,3.4244,3.4243,0,0,3.4,3.4015,3.4067,3.4084,3.411,3.4112,3.4125,3.4146,3.4152,3.4212,3.4192,3.4229,3.4297,3.4317,3.4337,3.4436,3.442,3.4449,3.4501,3.4543,3.4554,3.4564,3.46,3.4612,3.4457,3.4457,3.4457,0,3.4045,3.4104,3.4096,3.4142,3.4163,3.4139,3.4192,3.421,3.4247,3.4263,3.424,3.4324,3.4341,3.4417,3.4441,3.4457,3.4472,3.4445,3.4553,3.4563,3.4572,3.4606,3.4619,3.446,3.446,3.4459,3.4459,0,3.4158,3.42,3.4239,3.4274,3.4299,3.4349,3.435,3.4377,3.4369,3.4374,3.4436,3.4456,3.4496,3.4514,3.4507,3.4589,3.4576,3.4553,3.4512,3.4589,3.4621,3.4634,3.4465,3.4464,3.4463,3.4462,0,0,3.4279,3.4308,3.4323,3.4338,3.4365,3.4398,3.4448,3.4485,3.4509,3.4536,3.4578,3.4636,3.4615,3.4637,3.4632,3.4669,3.4746,3.4642,3.4642,3.466,3.4838,3.4854,3.4869,3.4736,3.4738,3.474,3.4836,0,3.4371,3.4455,3.4449,3.4529,3.4568,3.4546,3.4589,3.4611,3.4618,3.4653,3.4661,3.4702,3.4671,3.4684,3.4719,3.4729,3.4782,3.4722,3.4776,3.4777,3.4768,3.4886,3.4904,3.4993,3.4848,3.485,3.4852,0,3.4489,3.4518,3.4601,3.4622,3.4639,3.4677,3.4712,3.4746,3.4771,3.4773,3.4798,3.4787,3.4839,3.4797,3.4868,3.4828,3.485,3.4858,3.4862,3.4866,3.4819,3.4893,3.5021,3.5034,3.4871,3.4869,3.4868,0,3.4568,3.4629,3.4686,3.47,3.4727,3.4754,3.4767,3.4789,3.4813,3.4844,3.4859,3.4896,3.4917,3.4947,3.4947,3.4916,3.502,3.4978,3.5024,3.5024,3.5046,3.5044,3.5178,3.5061,3.5061,3.506,3.506,0,3.4671,3.4723,3.4722,3.4758,3.4816,3.481,3.4868,3.4878,3.4898,3.4936,3.492,3.4956,3.4955,3.4992,3.4994,3.5053,3.5062,3.5066,3.5066,3.5067,3.5067,3.5081,3.5075,3.5064,3.5063,3.5062,3.5062,0,3.4769,3.477,3.4832,3.4851,3.4858,3.49,3.4917,3.4952,3.4957,3.5005,3.5016,3.5025,3.5068,3.5072,3.5123,3.5123,3.5195,3.5188,3.5186,3.5184,3.523,3.5225,3.5377,3.5397,3.5267,3.5268,3.5269,0,3.4834,3.4873,3.4897,3.492,3.4934,3.4973,3.4996,3.4992,3.5018,3.5049,3.508,3.5122,3.5154,3.5225,3.5237,3.5276,3.5269,3.532,3.5275,3.5275,3.527,3.5267,3.5271,3.5329,3.533,3.5331,3.5332,0,3.4949,3.4948,3.4982,3.5016,3.5044,3.5071,3.5097,3.5118,3.5117,3.5147,3.519,3.5215,3.5266,3.5308,3.5346,3.5361,3.5347,3.5346,3.5359,3.536,3.5357,3.5359,3.5209,3.5343,3.5342,3.5341,3.534,3.534,3.5033,3.5067,3.5088,3.5127,3.5145,3.5169,3.5202,3.5211,3.5247,3.5287,3.5283,3.5331,3.5356,3.5406,3.5423,3.5462,3.5445,3.5463,3.5468,3.5472,3.5476,3.5352,3.5469,3.5469,3.5468,3.5468,3.5468,0,3.5147,3.516,3.5195,3.523,3.5261,3.5244,3.5271,3.5298,3.534,3.5364,3.5396,3.5446,3.5487,3.5502,3.5542,3.557,3.5564,3.558,3.5578,3.5581,3.549,3.5474,3.5584,3.5584,3.5584,3.5584,3.5584,3.5584,3.521,3.5266,3.5268,3.5334,3.5347,3.5392,3.5409,3.5432,3.5451,3.5507,3.554,3.5549,3.557,3.5611,3.5648,3.5651,3.5666,3.5685,3.5686,3.56,3.5588,3.5577,3.5562,3.5688,3.5688,3.5774,3.5775,3.5776]},{"header":{"parameterUnit":"m.s-1","parameterCategory":1,"la1":30.2991,"la2":30.254,"lo1":-89.0895,"lo2":-89.0444,"dy":0.0017,"dx":0.0017,"nx":28,"ny":28,"refTime":"2023-08-06T09:00:00:Z","depth":0,"parameterNumber":3,"parameterNumberName":"V-component_of_WINDS"},"data":[0,0,0,0,0,0,0,0,0,0,0,0,0,0,0,0,0,0,0,0,0,0,0,0,0,0,0,0,0,0,0,0,0,0,0,0,0,0,0,0,0,0,0,0,0,0,0,0,0,0,0,0,0,0,0,0,0,0,2.9866,2.9866,0,2.9902,2.9903,2.9903,2.9929,2.993,2.993,2.993,2.9964,2.9965,2.9966,0,0,0,0,0,0,0,0,0,0,0,0,0,2.9815,2.9816,2.9866,2.9867,2.9867,2.9902,2.9903,2.9903,2.9929,2.993,2.993,2.993,2.9964,2.9965,2.9966,0,0,0,0,0,0,0,0,0,0,0,0,0,2.9843,2.9816,2.9866,2.9884,2.9886,2.9902,2.9903,2.9904,2.9929,2.993,2.993,2.993,2.9964,2.9965,2.9966,2.9966,0,0,2.9969,2.997,0,0,0,0,0,0,0,0,2.9841,2.9845,2.9881,2.9883,2.9885,2.9912,2.9898,2.9924,2.9929,2.9913,2.993,2.993,2.9946,2.9949,2.9955,2.9968,2.9969,2.9969,2.997,2.9971,2.9971,0,0,0,0,0,0,0,2.9839,2.9843,2.988,2.9882,2.9884,2.9889,2.9894,2.9903,2.9927,2.9914,2.9916,2.992,2.9948,2.9954,2.9956,2.997,2.9969,2.997,2.9971,2.9971,2.9982,2.9981,0,0,0,0,0,0,2.9835,2.9841,2.9879,2.9882,2.9864,2.989,2.9895,2.9903,2.9927,2.9931,2.992,2.9921,2.9952,2.9955,2.9957,2.9958,2.9971,2.9972,2.9972,2.9982,2.9982,2.9981,0,0,0,0,0,0,2.9834,2.9838,2.9878,2.9862,2.9867,2.989,2.9899,2.9903,2.991,2.9932,2.9936,2.9922,2.9952,2.9956,2.9963,2.9959,2.9972,2.9973,2.9982,2.9982,2.9981,2.9959,0,0,0,0,0,0,2.9832,2.9837,2.9839,2.9862,2.9868,2.9884,2.9899,2.9904,2.9912,2.9914,2.9935,2.9939,2.9953,2.9962,2.9964,2.9961,2.9974,2.9983,2.9982,2.9982,2.996,2.9958,2.9955,0,0,0,0,0,2.983,2.9831,2.9839,2.9843,2.9871,2.9884,2.9888,2.9905,2.9912,2.9912,2.9926,2.9938,2.9959,2.9962,2.9966,2.9962,2.9983,2.9982,2.9982,2.9961,2.9958,2.9955,0,0,0,0,0,0,2.9807,2.9834,2.9843,2.9852,2.9865,2.9889,2.989,2.9902,2.9913,2.9914,2.9934,2.9939,2.9944,2.9954,2.9957,2.9962,2.9973,2.9972,2.9956,2.9953,2.9951,2.9948,2.9975,0,0,0,0,0,2.9802,2.9812,2.9836,2.9841,2.9847,2.9867,2.9874,2.9886,2.99,2.9906,2.9921,2.9933,2.9943,2.9948,2.9959,2.9961,2.9965,2.9961,2.9958,2.9956,2.9956,2.9956,2.9954,2.9978,2.9978,2.9978,0,0,2.9794,2.981,2.9815,2.9836,2.9848,2.9856,2.9872,2.9881,2.9886,2.9907,2.9915,2.9926,2.9941,2.9946,2.9949,2.9954,2.995,2.9955,2.9954,2.9954,2.9955,2.9952,2.995,2.9978,2.9978,2.9978,0,0,2.9782,2.9796,2.9801,2.9813,2.9831,2.9844,2.9845,2.9866,2.9874,2.9882,2.9897,2.9904,2.992,2.993,2.9937,2.9926,2.9937,2.9929,2.9917,2.9917,2.9915,2.9913,2.9908,2.9906,2.9928,2.9928,2.9928,0,2.9769,2.9784,2.9802,2.981,2.9817,2.9837,2.9841,2.9851,2.987,2.9875,2.9881,2.99,2.9912,2.9919,2.9916,2.9921,2.9922,2.9927,2.9914,2.9912,2.9911,2.9906,2.9904,2.9927,2.9927,2.9927,2.9927,0,2.9766,2.9775,2.9777,2.9795,2.9803,2.9809,2.9827,2.9833,2.9843,2.9855,2.9862,2.9876,2.9889,2.9891,2.9902,2.9898,2.9901,2.991,2.9921,2.9907,2.9903,2.9901,2.9925,2.9926,2.9926,2.9926,0,0,2.9742,2.977,2.977,2.9777,2.9797,2.9804,2.9809,2.9822,2.9826,2.9838,2.9842,2.9854,2.9862,2.987,2.9881,2.9882,2.987,2.989,2.9891,2.9885,2.9865,2.9857,2.9855,2.9877,2.9877,2.9877,2.9863,0,2.9733,2.9745,2.976,2.9766,2.9774,2.9791,2.9795,2.9807,2.9817,2.9824,2.9835,2.9843,2.9854,2.9859,2.986,2.9871,2.9866,2.9873,2.9879,2.9879,2.9874,2.9853,2.9845,2.9832,2.9862,2.9861,2.9861,0,2.9725,2.9736,2.9742,2.9759,2.9763,2.9767,2.9778,2.9785,2.9797,2.9805,2.9813,2.9825,2.9829,2.9839,2.9845,2.9849,2.9852,2.9858,2.9858,2.9859,2.9869,2.9852,2.9828,2.9825,2.9859,2.9859,2.9859,0,2.9705,2.9721,2.9727,2.9733,2.9754,2.9755,2.9764,2.9777,2.9783,2.9792,2.9795,2.9805,2.981,2.9817,2.983,2.9837,2.9834,2.9845,2.9839,2.9838,2.9837,2.9837,2.9812,2.9841,2.9841,2.9841,2.9841,0,2.9693,2.9696,2.9718,2.9721,2.9724,2.9741,2.9743,2.9753,2.9764,2.9768,2.9783,2.9787,2.9805,2.981,2.9821,2.9822,2.9825,2.983,2.9832,2.9828,2.9827,2.983,2.9831,2.984,2.984,2.9841,2.9841,0,2.9672,2.9687,2.9694,2.9712,2.9717,2.9718,2.9733,2.9735,2.9746,2.9751,2.9753,2.977,2.9776,2.979,2.9801,2.9807,2.9806,2.9811,2.9802,2.9803,2.9795,2.9795,2.9771,2.9768,2.9799,2.9799,2.9799,0,2.9663,2.9666,2.9684,2.9687,2.9695,2.9702,2.9707,2.9723,2.9728,2.9741,2.9742,2.9749,2.9756,2.9765,2.9777,2.9784,2.9789,2.978,2.9791,2.9785,2.9788,2.9787,2.9786,2.9778,2.9778,2.9777,2.9777,0,2.9645,2.9652,2.966,2.9669,2.9675,2.9684,2.9693,2.9695,2.9712,2.9717,2.9723,2.9728,2.9738,2.9745,2.9753,2.9761,2.9771,2.9774,2.9772,2.9767,2.9761,2.9763,2.9794,2.9774,2.9774,2.9775,2.9775,2.9775,2.963,2.9632,2.9644,2.9651,2.9659,2.9667,2.9669,2.968,2.9686,2.9695,2.9704,2.9709,2.9719,2.9732,2.9738,2.9741,2.9747,2.9745,2.9745,2.9744,2.9741,2.9761,2.9743,2.9743,2.9743,2.9743,2.9743,0,2.9612,2.962,2.9626,2.9638,2.9642,2.9652,2.9662,2.9665,2.9669,2.9678,2.9684,2.969,2.9696,2.9708,2.9714,2.9714,2.9719,2.9715,2.9715,2.9716,2.9736,2.9736,2.9711,2.9711,2.9711,2.9711,2.9711,2.9711,2.9603,2.9606,2.9614,2.962,2.9628,2.9633,2.9637,2.9643,2.965,2.9656,2.9661,2.9669,2.9678,2.9685,2.969,2.9693,2.9694,2.9688,2.9693,2.9712,2.9715,2.9718,2.9718,2.9689,2.9689,2.9672,2.9672,2.9672]}]]